OPLAOPRN

Guest
Details From OPLA - Allama Iqbal Intl
To OPRN - Chaklala
Flight Number -
Tags Generated
Created
Modified
Stats Distance 142 nm / 263 km
Max Altitude 0 ft / 0 m
Waypoints 3
Social Downloads 3
Likes 0
Share VATSIM

Download

Looking for another format? Having issues loading an existing format? Contact us
Advertisement - Login to hide

Notes

Generated

Route

OPLA RN160 OPRN

ID Type Via Altitude Latitude Longitude Leg Dist Tot Dist Heading (true) Name
O OPLA APT - 0 ft / 0 m 31.53392˚ 74.40283˚ - 0 nm - -
RN160 FIX - 0 ft / 0 m 33.46462˚ 73.18730˚ 131 nm 131 nm 332° / 332° -
O OPRN APT - 0 ft / 0 m 33.62378˚ 73.08317˚ 10 nm 142 nm 331° / 331° -

Altitude Profile

Advertisement - Login to hide

OPLA

Details ICAO OPLA (LHE)
Name ALLAMA IQBAL INTL
Region Pakistan
Timezone Asia/Karachi (UTC+5.0)
Stats Elevation 712 ft / 217 m (AMSL)
Location 31.521562° 74.403591°
Runways 2
Magnetic Variation 2.011° E

METAR

OPLA 120225Z 21006KT 1500 R36/P2000 RMID/P2000 R18/P2000 BR FEW040 SCT100 10/09 Q1014/A29.92

Decode

TAF

Not found

Departure Runways

ID Width Length Bearing (true) Bearing (mag) Surface Threshold Offset Overrun Length
18L 151 ft / 46 m 11,014 ft / 3,357 m 180.88° 178.87° Concrete 0 ft / 0 m 410 ft / 125 m
18R 151 ft / 46 m 9,023 ft / 2,750 m 180.87° 178.86° Asphalt 0 ft / 0 m 915 ft / 279 m
36L 151 ft / 46 m 9,023 ft / 2,750 m 0.87° 358.86° Asphalt 0 ft / 0 m 0 ft / 0 m
36R 151 ft / 46 m 11,014 ft / 3,357 m 0.88° 358.87° Concrete 0 ft / 0 m 420 ft / 128 m

OPRN

Details ICAO OPRN (ISB)
Name CHAKLALA
Region Pakistan
Timezone Asia/Karachi (UTC+5.0)
Stats Elevation 1,668 ft / 508 m (AMSL)
Location 33.616768° 73.098812°
Runways 1
Magnetic Variation 2.613° E

METAR

OPRN 120230Z 00000KT 1500 -RA SCT006ST BKN035 11/10 Q1014.0/29.94

Decode

TAF

Not found

Destination Runways

ID Width Length Bearing (true) Bearing (mag) Surface Threshold Offset Overrun Length
12 150 ft / 46 m 10,795 ft / 3,290 m 118.28° 115.67° Asphalt 885 ft / 270 m 680 ft / 207 m
30 150 ft / 46 m 10,795 ft / 3,290 m 298.30° 295.69° Asphalt 885 ft / 270 m 740 ft / 226 m

Approach Navaids

Runway Type Ident Frequency Range Bearing (true) Bearing (mag) Slope Elevation
30 Localiser IRN 110.30 MHz 18 nm / 33 km 298.21° 295.60° - 1,656 ft / 505 m (AMSL)
30 Glidescope IRN 110.30 MHz 10 nm / 19 km 298.29° 295.68° 3.00° 1,707 ft / 520 m (AMSL)
30 DME IRN 110.30 MHz 18 nm / 33 km - - - 1,713 ft / 522 m (AMSL)

Popular Alternatives